Wind_Speed
50 53 57 61 65 70 70 67 63 60 57 56 55 55 53 50 47 44 41 38 35 32 29 27 24 22 20 18 17 15 14 12 11 10 10 9 9 8 8 8 8 7 7 7 7 7 7 7 7
49 52 57 62 67 70 70 65 61 59 58 57 56 55 54 51 48 45 42 39 36 34 31 29 26 24 22 20 18 17 15 14 12 11 11 10 10 10 9 9 9 8 8 8 8 8 8 8 7
49 52 57 63 68 69 66 62 58 57 59 58 58 56 55 52 50 47 44 41 38 35 33 31 28 26 24 22 20 18 17 15 14 13 12 12 11 11 10 10 9 9 8 8 8 8 8 8 7
47 52 57 63 66 64 60 58 57 58 60 59 58 57 55 53 50 48 46 43 40 38 35 33 30 28 26 24 22 20 18 17 16 15 14 13 13 12 12 11 10 10 9 9 9 9 8 8 8
47 52 57 61 63 59 57 57 59 60 60 59 59 57 54 53 50 49 47 45 42 40 38 35 32 30 28 26 24 22 20 18 17 16 15 14 14 13 13 12 11 11 10 10 9 9 9 9 9
47 52 57 59 58 56 56 58 59 61 59 58 59 57 56 54 51 49 49 47 44 42 40 37 35 32 30 27 25 23 22 20 18 17 17 16 15 15 14 13 13 12 11 11 10 10 10 10 10
48 51 54 54 54 55 55 57 59 60 58 57 57 58 56 53 51 49 48 48 46 44 42 40 37 34 31 29 27 25 23 21 20 19 18 17 16 16 16 15 14 13 13 12 11 11 11 11 11
46 49 52 51 52 53 53 56 57 58 57 55 57 57 54 53 51 50 49 49 48 47 44 42 39 36 33 31 28 26 24 22 21 20 19 18 18 17 17 16 15 15 14 13 13 12 12 12 12
44 48 50 50 49 50 51 54 56 57 56 55 54 55 54 51 52 50 49 49 49 48 46 44 42 38 35 32 30 27 25 24 22 21 20 20 19 19 18 18 17 16 16 15 14 14 13 13 13
44 46 45 47 48 49 52 54 54 56 55 55 54 54 54 52 49 48 48 49 48 46 45 45 43 40 36 33 30 28 26 25 24 22 21 21 20 20 20 19 19 18 17 17 16 15 15 15 15
43 43 43 45 48 51 52 53 53 54 54 54 53 52 53 53 49 46 48 47 48 47 46 45 44 41 37 34 31 29 27 26 25 23 22 22 21 21 21 21 20 20 19 18 18 17 16 16 16
42 42 42 44 47 50 52 54 54 55 52 52 52 51 53 52 48 46 45 47 45 46 46 46 45 43 39 35 32 30 28 27 26 24 23 23 22 22 22 22 22 21 21 20 20 19 18 18 18
40 41 43 43 47 49 51 53 54 55 52 51 51 51 50 49 48 46 44 43 43 43 44 45 44 42 39 36 34 31 29 28 26 25 24 24 24 24 23 24 24 23 23 22 21 21 20 20 20
38 41 43 42 45 47 50 53 53 54 53 51 49 49 49 46 45 43 43 40 39 40 42 42 43 42 40 38 36 34 32 29 27 26 26 25 25 24 24 25 25 25 25 24 24 23 23 23 23
37 40 43 43 44 45 47 52 52 51 52 52 50 49 48 46 43 42 40 38 36 37 39 39 40 41 40 39 38 35 33 31 29 28 27 26 26 25 25 26 26 26 26 26 26 26 26 26 26
36 39 41 42 44 45 47 49 50 50 52 52 51 50 48 46 43 41 39 36 34 34 36 37 38 39 39 38 38 37 36 34 32 30 29 28 27 27 27 27 27 27 27 28 28 28 28 28 28
35 37 38 40 42 44 47 47 47 49 51 51 51 51 49 46 44 42 40 38 35 33 34 34 35 36 38 38 37 36 36 35 34 32 31 30 29 27 27 27 27 27 28 29 30 30 31 31 31
32 35 37 39 40 42 45 45 45 47 49 49 49 50 49 47 44 42 40 38 36 33 33 34 34 34 36 37 37 36 36 35 34 33 33 32 30 29 28 28 29 29 30 30 31 32 33 33 34
29 33 35 37 38 40 42 42 44 46 47 48 48 48 48 46 44 42 40 39 37 35 33 32 32 33 35 35 36 35 35 36 35 34 33 32 31 30 29 30 30 31 31 32 33 34 34 35 36
26 31 32 34 36 38 40 41 41 45 47 47 47 46 46 45 44 42 39 38 37 36 35 34 33 33 34 34 35 35 36 37 37 35 34 33 33 32 32 32 32 32 33 34 35 36 37 37 38
22 27 30 32 35 36 37 38 41 42 44 45 46 44 44 45 44 42 41 39 37 36 34 34 35 34 34 33 35 36 36 36 37 37 36 35 34 34 35 35 35 35 36 36 37 37 38 38 39
17 23 28 31 33 34 35 36 38 39 41 44 44 43 42 42 43 41 41 39 38 37 37 36 35 34 34 34 33 34 34 34 35 36 35 36 35 36 36 37 38 38 39 39 39 40 40 41 41
14 19 24 27 30 32 32 32 35 34 37 41 42 41 39 40 41 40 40 39 38 37 37 37 36 36 35 36 36 35 35 35 35 35 35 36 36 37 38 38 38 39 40 41 41 42 43 43 43
11 17 20 22 26 28 28 29 29 31 34 36 39 40 37 37 39 39 39 39 39 38 38 37 37 37 36 37 37 37 36 36 35 36 36 37 38 38 39 39 39 40 41 41 42 43 44 45 45
11 16 18 19 21 23 25 26 24 26 30 32 34 37 36 36 36 37 38 39 38 38 38 37 38 38 38 38 38 38 38 38 38 38 39 39 39 39 39 40 41 42 43 43 43 44 45 45 45
11 13 15 16 18 19 20 21 20 21 27 29 31 34 34 33 34 35 37 37 37 37 37 37 37 38 38 38 39 39 39 39 40 41 41 41 40 40 41 41 42 42 43 44 44 45 45 46 46
10 11 11 12 14 16 18 18 18 20 24 27 29 31 33 33 32 33 35 36 37 36 37 37 37 37 37 37 38 38 39 39 40 41 42 43 43 42 42 43 43 44 44 46 47 47 48 49 50
7 9 10 10 11 13 14 16 17 18 21 24 26 28 32 33 32 32 33 36 37 37 37 37 37 37 37 37 37 38 39 40 40 41 42 43 44 44 45 45 46 46 47 48 48 49 50 50 51
6 7 7 8 9 11 12 14 16 17 18 19 22 26 29 31 32 33 33 34 36 37 37 37 38 39 38 38 38 39 40 40 41 42 43 43 44 45 46 47 47 48 48 49 49 49 49 50 50
5 5 6 7 9 11 11 13 15 16 17 19 21 24 27 28 31 33 33 35 36 37 38 39 39 40 41 40 40 41 41 42 43 43 44 45 45 46 47 48 48 49 49 49 49 49 49 49 49
Wind_Direction
249 241 235 232 229 229 228 226 223 220 217 216 217 218 219 221 221 221 221 220 221 222 222 221 220 220 222 224 225 225 226 228 228 230 233 238 242 245 249 253 259 267 275 281 287 294 300 305 307
245 238 233 230 229 229 227 224 222 219 218 216 216 217 217 219 220 219 220 219 220 221 221 220 220 221 223 224 225 224 225 227 229 230 232 236 240 246 249 253 259 265 272 279 285 291 297 301 302
241 236 231 229 229 229 227 223 221 219 218 216 216 217 216 216 218 218 218 219 219 220 221 220 220 221 223 224 225 223 224 227 229 231 232 236 240 244 248 252 258 263 269 277 283 288 293 296 298
237 232 230 228 229 228 226 222 220 219 218 217 217 217 215 215 216 216 216 217 218 219 220 220 220 221 222 224 224 223 224 226 229 231 233 236 239 243 246 250 256 262 268 274 280 285 288 291 294
234 230 228 228 228 225 222 219 218 218 218 218 218 216 213 213 213 214 215 216 217 218 219 220 220 220 222 223 223 223 224 226 229 230 233 236 238 241 244 248 254 260 267 272 277 281 286 290 292
231 229 228 227 225 222 219 218 218 219 218 217 217 216 214 211 211 213 214 214 215 216 217 219 219 220 221 222 223 223 224 226 228 230 233 235 238 240 243 247 251 256 262 268 271 276 282 287 290
229 228 228 226 223 220 217 216 218 219 219 217 217 216 214 212 210 209 209 211 213 215 216 218 219 219 220 222 223 223 224 225 226 229 232 235 238 240 243 245 249 253 258 262 266 271 276 281 284
228 227 227 224 221 217 215 216 217 218 218 217 216 215 213 213 211 210 210 210 211 213 215 217 217 217 219 220 222 222 223 224 226 228 232 235 237 240 241 243 247 251 254 258 263 267 271 275 279
226 227 225 222 219 216 214 215 215 217 218 217 216 215 213 213 214 212 210 208 209 211 214 215 215 215 217 218 220 221 222 223 226 228 231 234 237 239 240 243 246 249 252 256 260 263 268 272 275
225 226 224 220 217 215 213 214 214 215 217 217 217 217 215 212 212 213 210 210 209 210 212 214 213 213 214 216 217 219 221 223 226 229 231 234 237 239 241 243 245 248 251 254 258 261 265 269 273
224 223 220 217 216 214 213 212 213 214 215 217 218 219 218 215 213 213 213 212 211 211 210 210 211 210 211 212 214 217 219 222 225 229 231 234 237 239 241 243 245 247 249 253 256 258 262 266 270
223 221 220 218 216 214 213 211 212 212 212 215 218 219 220 218 215 214 214 212 208 207 207 208 209 208 208 210 212 215 218 220 223 227 230 234 237 240 241 243 245 247 249 252 255 258 261 265 269
223 221 219 218 216 215 213 211 211 213 210 212 216 217 218 220 219 218 215 215 211 210 209 211 209 207 208 209 212 214 217 220 222 226 229 233 237 239 242 245 246 248 250 252 255 259 262 266 269
222 220 218 217 215 215 214 212 211 211 211 212 214 216 218 220 221 220 221 221 216 212 210 211 210 210 211 212 213 215 218 221 224 226 229 233 236 239 243 245 248 250 251 253 256 259 263 266 269
220 218 217 216 214 214 213 213 212 210 211 212 213 214 216 219 221 222 222 224 222 219 215 212 212 211 211 213 214 216 218 221 224 226 229 233 236 239 243 246 249 251 253 255 258 260 263 266 269
217 217 216 214 214 214 214 213 211 211 212 212 214 215 216 219 220 221 222 223 223 222 220 219 212 211 211 213 215 217 219 221 224 227 230 233 236 240 243 246 249 252 255 257 259 261 263 266 269
217 216 215 213 212 214 215 212 211 211 212 210 212 215 217 219 220 221 224 224 223 222 224 223 216 215 214 215 218 221 223 225 227 229 232 235 239 242 245 248 251 254 256 258 260 262 264 267 269
215 214 213 211 212 214 214 212 210 211 212 210 210 214 217 219 221 222 225 226 226 227 228 226 223 222 221 220 221 224 227 229 230 232 235 238 240 244 247 251 254 257 259 261 263 264 266 268 270
213 213 212 211 213 215 214 213 211 213 213 212 211 214 217 220 223 224 225 225 225 227 226 225 225 225 225 226 228 229 231 231 233 235 237 239 243 246 249 253 256 260 262 264 265 267 268 269 271
211 209 209 210 211 213 214 214 212 212 213 214 212 213 217 220 223 225 228 229 229 230 231 230 230 230 230 231 233 232 233 234 235 237 239 241 244 248 252 255 259 261 263 265 267 268 270 271 272
209 209 209 210 208 211 213 214 213 213 214 213 212 213 217 221 224 225 228 230 232 234 236 236 235 235 235 238 238 237 238 239 239 240 242 244 247 251 252 255 259 261 263 266 268 269 270 272 273
205 205 208 209 211 214 215 217 215 216 216 215 214 216 218 220 223 226 230 233 235 237 239 240 240 240 239 239 239 240 241 242 243 243 246 248 251 253 254 257 261 262 264 266 268 269 271 272 274
195 197 199 204 208 213 216 220 217 219 219 219 219 218 219 220 222 226 230 232 234 236 239 241 242 242 241 241 241 241 244 246 248 248 250 253 255 256 257 259 261 263 265 267 268 269 271 273 275
182 185 188 197 206 214 218 221 220 222 221 221 221 220 221 223 225 227 228 230 234 236 239 241 241 242 243 243 244 245 247 250 251 251 253 256 258 259 261 262 262 263 266 268 271 271 273 274 276
171 175 184 193 204 212 217 222 224 225 223 222 223 223 223 225 225 228 229 231 234 236 239 240 241 242 242 244 245 247 249 250 252 253 255 257 260 262 263 264 265 266 268 270 272 274 275 276 278
160 174 186 197 208 214 218 222 224 226 223 224 227 225 223 223 225 229 230 231 233 236 239 240 242 242 242 244 246 248 249 251 253 255 257 259 261 263 264 266 267 268 270 271 273 275 276 277 279
157 168 179 192 202 211 217 223 226 225 225 226 228 226 224 225 227 228 229 231 234 236 238 240 242 244 245 246 248 249 250 252 254 255 257 259 261 263 265 268 270 271 273 274 276 277 277 279 280
166 173 186 192 196 204 212 219 222 223 225 228 229 227 226 228 229 231 233 235 237 238 239 240 242 244 247 248 250 251 252 253 255 257 258 261 263 265 266 268 271 272 274 276 277 278 279 280 281
174 182 195 205 210 212 217 219 223 227 228 230 231 231 230 233 236 236 237 240 240 239 240 241 243 245 247 249 252 253 254 255 256 258 260 262 263 265 266 269 271 273 275 276 277 278 280 282 283
176 184 198 207 216 220 222 221 223 227 231 233 235 235 235 237 240 241 242 242 243 243 244 245 247 248 249 250 253 254 255 256 258 260 262 263 264 265 267 270 272 273 275 276 278 279 281 282 283
Height
5729 5733 5737 5740 5743 5743 5750 5764 5777 5787 5794 5800 5805 5810 5816 5822 5830 5838 5841 5844 5847 5851 5854 5857 5860 5862 5864 5866 5868 5870 5871 5873 5874 5875 5876 5877 5878 5878 5879 5879 5880 5880 5881 5881 5881 5881 5881 5881 5881
5718 5721 5725 5727 5728 5731 5742 5758 5769 5780 5788 5793 5798 5803 5810 5816 5823 5829 5834 5838 5843 5847 5850 5853 5856 5859 5861 5863 5865 5867 5869 5870 5872 5873 5874 5875 5876 5877 5877 5878 5879 5879 5879 5880 5880 5880 5880 5880 5880
5706 5709 5713 5714 5715 5723 5739 5755 5767 5774 5779 5784 5790 5796 5804 5810 5817 5823 5828 5833 5838 5842 5846 5849 5852 5855 5858 5860 5862 5864 5866 5868 5869 5871 5872 5873 5874 5875 5876 5876 5877 5878 5878 5879 5879 5879 5879 5879 5879
5695 5698 5701 5703 5706 5720 5736 5751 5759 5763 5769 5776 5783 5790 5798 5805 5811 5817 5822 5827 5832 5837 5841 5845 5848 5851 5854 5857 5859 5861 5863 5865 5866 5868 5869 5870 5872 5873 5874 5875 5876 5876 5877 5877 5878 5878 5878 5878 5878
5684 5687 5689 5692 5701 5716 5730 5741 5747 5753 5760 5768 5776 5783 5791 5798 5804 5810 5815 5821 5826 5831 5836 5840 5843 5847 5850 5853 5855 5857 5859 5861 5863 5865 5867 5868 5869 5870 5872 5873 5874 5874 5875 5876 5876 5876 5876 5876 5876
5674 5677 5680 5685 5696 5711 5722 5731 5737 5744 5752 5760 5768 5776 5784 5790 5797 5803 5809 5814 5820 5825 5830 5834 5838 5842 5846 5849 5851 5854 5856 5858 5860 5862 5864 5865 5866 5868 5869 5870 5871 5872 5873 5874 5874 5874 5875 5875 5875
5665 5668 5672 5681 5692 5703 5714 5722 5729 5737 5744 5753 5761 5768 5776 5783 5790 5796 5802 5807 5813 5819 5824 5829 5833 5837 5841 5844 5847 5850 5852 5854 5856 5859 5861 5862 5864 5865 5866 5868 5869 5870 5871 5872 5872 5872 5873 5873 5873
5656 5661 5666 5674 5685 5696 5708 5715 5723 5730 5738 5746 5753 5761 5770 5777 5783 5788 5794 5800 5806 5812 5817 5823 5828 5832 5836 5840 5843 5846 5848 5850 5853 5855 5857 5859 5860 5862 5863 5865 5866 5867 5868 5869 5870 5870 5870 5871 5871
5648 5653 5659 5670 5680 5692 5700 5707 5715 5723 5731 5739 5747 5756 5763 5768 5775 5782 5787 5793 5799 5805 5811 5816 5821 5826 5831 5834 5838 5841 5844 5846 5849 5851 5853 5855 5857 5858 5860 5861 5863 5864 5865 5866 5867 5867 5868 5868 5868
5640 5646 5656 5667 5675 5684 5691 5699 5708 5716 5724 5733 5741 5749 5755 5761 5768 5775 5780 5787 5793 5799 5805 5810 5815 5820 5825 5829 5833 5836 5839 5842 5845 5847 5849 5851 5853 5855 5856 5858 5859 5860 5862 5863 5864 5864 5865 5865 5865
5634 5642 5651 5659 5667 5675 5683 5691 5700 5708 5718 5727 5735 5742 5748 5755 5762 5769 5775 5780 5787 5793 5798 5803 5808 5813 5819 5823 5827 5831 5834 5837 5840 5842 5845 5847 5849 5851 5852 5854 5855 5857 5858 5859 5860 5861 5861 5862 5862
5629 5637 5645 5652 5660 5668 5676 5685 5693 5701 5713 5722 5728 5735 5743 5749 5756 5763 5770 5775 5781 5786 5791 5796 5801 5807 5812 5817 5822 5826 5829 5832 5835 5838 5840 5842 5844 5846 5848 5850 5851 5852 5854 5855 5856 5857 5857 5858 5858
5623 5632 5639 5646 5653 5661 5669 5678 5687 5696 5707 5715 5722 5730 5737 5743 5751 5757 5763 5770 5776 5782 5787 5791 5795 5800 5805 5811 5816 5820 5824 5827 5830 5832 5835 5837 5839 5841 5843 5845 5847 5848 5849 5850 5851 5852 5853 5853 5853
5618 5625 5632 5639 5647 5655 5663 5672 5680 5691 5700 5709 5717 5725 5732 5738 5745 5752 5758 5764 5771 5777 5782 5786 5790 5794 5799 5804 5809 5814 5818 5821 5824 5827 5829 5832 5834 5836 5838 5840 5841 5843 5844 5845 5846 5847 5848 5848 5848
5611 5619 5626 5633 5641 5648 5657 5666 5676 5686 5694 5703 5711 5718 5726 5732 5739 5746 5752 5758 5764 5771 5777 5782 5786 5790 5794 5798 5803 5807 5811 5815 5818 5821 5824 5826 5828 5831 5833 5834 5836 5837 5839 5840 5841 5842 5842 5843 5843
5606 5613 5620 5629 5636 5643 5652 5661 5672 5679 5687 5697 5705 5713 5720 5727 5733 5740 5746 5752 5758 5764 5771 5776 5781 5785 5789 5794 5798 5802 5805 5808 5812 5815 5818 5820 5823 5825 5827 5829 5830 5832 5833 5834 5835 5836 5836 5837 5837
5601 5608 5616 5624 5631 5638 5647 5657 5666 5673 5682 5691 5700 5708 5715 5721 5727 5734 5740 5746 5752 5758 5764 5770 5776 5781 5785 5789 5793 5796 5799 5802 5805 5809 5812 5814 5817 5819 5821 5823 5824 5825 5827 5828 5828 5829 5830 5830 5830
5598 5605 5612 5620 5627 5635 5643 5653 5662 5669 5676 5685 5694 5702 5709 5716 5722 5728 5734 5740 5746 5752 5758 5764 5769 5775 5779 5783 5787 5790 5794 5797 5800 5802 5805 5807 5810 5812 5814 5816 5818 5819 5820 5821 5822 5822 5823 5823 5823
5596 5602 5609 5617 5624 5631 5639 5648 5657 5664 5672 5680 5688 5696 5703 5710 5716 5723 5729 5735 5740 5746 5752 5757 5762 5768 5772 5776 5780 5784 5788 5791 5794 5796 5798 5801 5803 5805 5807 5809 5811 5812 5813 5814 5815 5815 5815 5816 5816
5594 5600 5607 5615 5621 5628 5636 5645 5653 5660 5667 5675 5682 5690 5698 5705 5712 5718 5724 5729 5735 5740 5746 5751 5756 5760 5765 5770 5774 5777 5781 5784 5787 5789 5792 5794 5796 5798 5800 5802 5803 5804 5805 5806 5807 5807 5807 5808 5808
5594 5600 5606 5613 5619 5626 5634 5642 5649 5657 5663 5670 5678 5685 5693 5700 5707 5713 5719 5724 5729 5734 5739 5745 5749 5754 5758 5762 5766 5770 5773 5776 5779 5782 5785 5787 5788 5790 5792 5793 5795 5796 5797 5798 5798 5799 5799 5799 5799
5594 5599 5605 5612 5618 5625 5633 5640 5648 5654 5660 5667 5675 5682 5689 5696 5702 5708 5713 5719 5724 5729 5733 5738 5742 5747 5751 5755 5758 5761 5765 5768 5770 5774 5777 5779 5780 5782 5784 5785 5786 5787 5788 5789 5789 5790 5790 5790 5790
5595 5599 5605 5611 5618 5625 5632 5639 5647 5651 5658 5665 5672 5679 5685 5691 5697 5702 5708 5713 5718 5723 5728 5732 5736 5740 5744 5748 5751 5754 5758 5761 5763 5766 5768 5770 5772 5774 5775 5776 5777 5778 5779 5780 5780 5780 5781 5781 5780
5597 5601 5606 5612 5619 5626 5632 5638 5645 5650 5656 5662 5668 5675 5680 5686 5691 5697 5702 5708 5712 5717 5721 5725 5729 5733 5737 5740 5743 5746 5749 5752 5755 5758 5760 5761 5763 5765 5766 5767 5768 5769 5770 5770 5771 5771 5771 5771 5770
5601 5605 5610 5614 5620 5626 5632 5637 5644 5648 5653 5659 5664 5670 5676 5681 5686 5692 5697 5702 5706 5711 5714 5718 5722 5726 5730 5733 5735 5738 5741 5744 5747 5749 5751 5753 5755 5756 5757 5758 5759 5760 5760 5760 5761 5761 5761 5761 5760
5604 5609 5614 5618 5621 5626 5631 5636 5642 5646 5651 5655 5660 5665 5671 5676 5681 5686 5691 5696 5700 5704 5708 5712 5715 5719 5722 5725 5727 5730 5733 5736 5738 5740 5742 5744 5745 5746 5747 5748 5749 5750 5750 5751 5751 5751 5751 5750 5750
5608 5611 5616 5619 5622 5627 5631 5636 5641 5644 5649 5653 5658 5662 5667 5672 5677 5681 5685 5690 5694 5698 5701 5705 5708 5711 5714 5717 5719 5722 5724 5727 5729 5731 5733 5735 5736 5737 5738 5738 5739 5740 5740 5740 5740 5740 5740 5740 5739
5611 5614 5617 5620 5623 5627 5631 5635 5639 5643 5647 5651 5655 5659 5663 5668 5672 5676 5680 5684 5687 5691 5695 5698 5701 5703 5706 5709 5711 5713 5715 5718 5720 5722 5723 5725 5726 5727 5728 5728 5729 5729 5730 5730 5729 5729 5729 5728 5727
5613 5616 5618 5621 5624 5627 5631 5636 5638 5641 5645 5648 5652 5656 5660 5664 5667 5671 5674 5677 5681 5684 5687 5690 5693 5695 5698 5700 5703 5705 5707 5709 5710 5712 5713 5715 5716 5717 5717 5718 5718 5718 5719 5719 5718 5718 5717 5717 5715
5614 5616 5619 5622 5624 5627 5630 5637 5636 5639 5642 5646 5649 5653 5656 5659 5662 5665 5668 5671 5674 5677 5679 5682 5685 5687 5689 5691 5694 5696 5697 5699 5700 5702 5703 5704 5705 5706 5707 5707 5707 5708 5708 5707 5707 5707 5706 5705 5704